Weather in Novotomnikovo

Russia / Tambov Oblast     53°46′29″N   41°47′03″E
temp.,
°C
wind,
m/s
gust,
m/s
humid.,
%
clouds,
%
prec.,
mm/h
press.,
hPa
HPBL,
m
27 february, sat
sat2700:00+1w6149093 0.0 1003586
03:00+1w6139096 0.1 1003710
06:00+1w71395100 0.1 1000665
09:00+1w81597100 0.3 1001831
12:00−6nw81188100 0.9 1003770
15:00−8nnw71188100 1.1 1006792
18:00−9nnw51090100 0.1 1009630
21:00−11nnw4994100 0.1 1012338
28 february, sun
sun2800:00−13nnw489590 0.0 1012227
03:00−14nw369556 0.0 1014139
06:00−15nw35951 0.0 101591
09:00−13nnw359419 0.0 1015245
12:00−9nw348990 0.0 1015421
15:00−7nnw349095 0.1 1016501
18:00−9nnw2394100 0.1 101663
21:00−8n2595100 0.1 1019143
1 march, mon
mon100:00−11ne1296100 0.1 102021
03:00−12n1196100 0.1 102221
06:00−13n129686 0.0 102321
09:00−11n119484 0.0 102465
12:00−7w228858 0.0 1024274
15:00−5sw349276 0.0 1024317
18:00−8sw349693 0.0 102298
21:00−4sw599596 0.1 1021352
2 march, tue
tue200:00−3sw61195100 0.1 1018379
03:00−2wsw71495100 0.4 1014571
06:000w71496100 1.0 1010658
09:000wnw71297100 1.4 1008702
12:00+1nw61292100 0.3 1008791
15:00+1nw6118992 0.4 1009820
18:00−2nw5128778 0.0 1009406
21:00−1nw6139186 0.1 1010647
3 march, wed
wed300:00−2nw61390100 0.0 1010638
03:00−3nw6119298 0.1 1011635
06:00−4nw5129399 0.1 1012517
09:00−3nw6108997 0.1 1014770
12:00−2nw7109197 0.1 1014843
15:00−2nw6108599 0.2 1015927
18:00−2nw41090100 0.1 1016638
21:00−4wnw4109299 0.1 1017303